This is the latest recevied weather packets stored in our database for station/object N4CRH-13. If no packets are shown the sender has not sent any weather packets the latest 10 day(s).
| Time | Temp. | Humidity | Pressure | Rain* | Wind** | Luminosity | Snow |
|---|---|---|---|---|---|---|---|
| 1777755429 | 17.78° C | 23% | 1298.2 hPa | 0 mm | - | 602 W/m² | - |
| 1777753915 | 17.78° C | 25% | 1298.7 hPa | 0 mm | - | 655 W/m² | - |
| 1777753608 | 18.33° C | 23% | 1298.5 hPa | 0 mm | - | 665 W/m² | - |
| 1777753307 | 18.33° C | 24% | 1298.6 hPa | 0 mm | - | 671 W/m² | - |
| 1777753003 | 17.78° C | 26% | 1298.4 hPa | 0 mm | - | 678 W/m² | - |
| 1777752700 | 17.22° C | 26% | 1298.5 hPa | 0 mm | - | 690 W/m² | - |
| 1777752395 | 16.67° C | 22% | 1298.4 hPa | 0 mm | - | 699 W/m² | - |
| 1777752093 | 17.22° C | 23% | 1298.8 hPa | 0 mm | - | 702 W/m² | - |
| 1777751791 | 17.22° C | 23% | 1298.6 hPa | 0 mm | - | 710 W/m² | - |
| 1777751184 | 16.67° C | 24% | 1299 hPa | 0 mm | - | 716 W/m² | - |
| 1777750577 | 16.67° C | 22% | 1298.8 hPa | 0 mm | - | 725 W/m² | - |
| 1777750274 | 16.67° C | 23% | 1298.7 hPa | 0 mm | - | 728 W/m² | - |
| 1777749970 | 17.22° C | 23% | 1299.1 hPa | 0 mm | - | 736 W/m² | - |
| 1777749668 | 16.67° C | 23% | 1299 hPa | 0 mm | - | 736 W/m² | - |
| 1777749364 | 16.11° C | 24% | 1299.1 hPa | 0 mm | - | 739 W/m² | - |
| 1777749062 | 17.78° C | 23% | 1299 hPa | 0 mm | - | 740 W/m² | - |
| 1777748759 | 16.11° C | 26% | 1299.1 hPa | 0 mm | - | 743 W/m² | - |
| 1777748456 | 16.11° C | 25% | 1299.1 hPa | 0 mm | - | 745 W/m² | - |
| 1777748151 | 15.56° C | 25% | 1299.3 hPa | 0 mm | - | 747 W/m² | - |
| 1777747849 | 16.11° C | 22% | 1299.5 hPa | 0 mm | - | 747 W/m² | - |
| 1777747544 | 15.56° C | 27% | 1299.3 hPa | 0 mm | - | 747 W/m² | - |
| 1777747240 | 16.67° C | 27% | 1299.2 hPa | 0 mm | - | 746 W/m² | - |
| 1777746937 | 15.56° C | 26% | 1299.5 hPa | 0 mm | - | 745 W/m² | - |
| 1777746632 | 15.56° C | 24% | 1299.7 hPa | 0 mm | - | 746 W/m² | - |
| 1777746328 | 15.56° C | 26% | 1299.8 hPa | 0 mm | - | 745 W/m² | - |
* Rain latest hour (hover to see other rain measurements)
** Current wind speed in m/s (hover to see current wind gust speed)